Wind_Speed
22 22 21 21 21 21 21 20 19 18 18 18 18 16 15 13 13 13 11 10 9 9 9 8 8 8 8 9 9 10 11 12 13 14 16 16 17 18 18 19 19 20 21 21
23 23 22 23 22 22 22 21 21 20 20 20 20 19 17 16 15 14 13 11 10 11 11 11 11 10 10 10 10 11 12 13 14 15 17 18 18 18 18 19 20 20 21 22
22 23 23 24 22 22 22 23 23 22 22 21 22 20 19 19 18 16 15 14 13 12 12 13 13 13 12 12 12 13 13 15 16 17 17 18 19 19 19 20 21 22 22 23
23 23 23 24 23 23 23 23 24 24 24 22 22 21 21 20 20 19 18 17 16 15 14 14 14 14 14 14 14 15 15 16 17 18 19 20 20 21 22 23 23 24 25 26
23 22 23 24 22 22 23 24 24 25 24 24 23 23 23 23 23 22 21 19 19 18 17 17 16 16 16 16 16 16 17 18 19 19 21 22 23 23 24 25 26 27 27 28
23 23 24 25 23 23 24 25 24 24 24 24 25 25 25 24 24 23 22 22 21 21 20 19 18 18 18 18 18 18 19 20 21 22 23 24 25 26 26 27 28 29 30 31
23 23 25 25 23 24 25 25 24 24 24 25 26 26 26 25 24 25 24 23 23 23 22 21 20 20 19 20 20 20 21 22 23 23 25 27 27 27 28 29 30 31 32 33
23 24 26 24 24 24 25 24 23 24 24 24 25 26 26 26 25 25 25 25 24 24 24 23 23 23 22 22 22 23 23 24 24 25 26 27 29 29 30 31 32 33 34 35
23 23 23 23 24 24 24 23 23 23 24 24 24 24 24 25 25 25 25 25 25 26 25 24 24 25 24 24 25 25 26 26 26 27 28 28 30 31 32 33 34 34 35 36
21 21 21 21 22 22 23 23 22 23 23 23 23 23 24 24 24 24 24 25 25 25 25 25 25 25 25 26 27 26 26 27 28 29 29 30 30 31 33 34 35 37 38 38
20 20 19 19 19 19 20 20 21 21 21 22 22 23 23 23 23 23 23 24 25 25 25 25 25 25 26 26 27 27 28 29 29 29 30 31 32 32 32 32 34 35 37 38
19 19 18 18 17 18 18 17 18 19 20 21 21 21 22 22 22 23 24 25 25 25 26 26 26 27 28 28 29 29 29 29 29 29 29 30 31 31 31 33 34 35 36 38
18 18 18 18 17 17 17 17 16 16 17 18 19 20 20 21 21 22 23 24 25 25 25 25 26 26 26 27 28 29 28 29 29 28 28 28 29 30 32 34 35 36 37 38
16 17 16 16 15 15 15 15 15 16 17 17 18 18 18 19 19 19 20 21 22 22 22 22 23 24 24 25 26 26 27 27 28 28 28 29 30 31 32 33 35 36 38 39
16 16 16 17 16 16 14 14 14 15 15 15 16 16 16 17 17 17 17 17 18 18 18 18 19 20 20 21 22 22 23 24 24 25 27 28 30 32 33 34 36 38 40 41
16 16 16 16 15 14 13 13 13 13 13 13 13 13 13 13 12 12 12 12 13 13 14 14 15 16 17 18 20 21 22 24 25 26 28 30 31 33 34 36 38 40 41 42
16 15 15 14 13 13 12 12 11 12 12 11 10 10 9 9 9 9 9 10 11 12 13 14 15 17 18 19 20 22 23 25 26 28 30 32 33 35 37 38 40 41 42 43
15 14 14 13 12 12 11 11 10 10 11 11 10 9 9 9 9 10 10 11 12 13 14 16 17 18 19 21 22 24 26 27 29 31 33 34 36 37 38 40 41 42 44 45
15 14 14 13 13 13 12 11 11 11 11 10 10 11 11 11 11 12 13 13 15 15 17 18 19 20 22 23 25 26 28 30 32 33 35 36 38 39 40 41 42 43 44 45
16 15 15 14 14 13 12 12 11 11 11 11 11 11 12 12 13 13 14 15 16 18 19 20 21 23 25 26 28 30 31 33 35 36 38 39 40 40 41 42 43 42 42 42
16 15 15 14 14 14 14 13 12 12 12 12 12 13 13 14 14 15 16 18 19 21 22 24 25 26 28 30 31 33 34 35 37 38 39 39 39 40 41 41 41 40 40 40
16 16 15 15 15 15 14 14 14 14 13 14 14 14 14 15 16 17 19 20 22 23 25 26 27 29 31 32 33 34 35 36 37 38 38 38 38 39 39 38 38 38 37 37
15 15 14 15 15 15 15 15 14 14 14 14 14 15 16 17 18 19 21 22 23 25 26 28 30 31 32 33 34 35 36 37 37 37 36 36 36 36 36 35 35 35 35 35
16 16 16 15 15 14 14 14 14 14 14 15 16 17 18 19 21 22 23 24 26 27 29 30 32 32 33 34 34 35 35 35 35 34 34 34 34 34 33 33 33 33 33 32
16 16 16 16 16 15 15 15 15 15 16 17 18 19 20 22 23 24 26 27 28 30 31 31 32 32 32 33 33 33 34 33 33 32 32 31 31 31 31 31 31 31 30 30
15 16 16 16 16 16 16 16 17 17 18 19 20 21 22 24 25 26 28 29 30 31 31 31 31 32 32 32 32 32 32 31 30 30 29 29 30 30 30 29 29 28 27 27
15 16 16 16 16 16 16 17 18 19 20 20 22 23 24 26 27 28 29 30 31 31 31 31 31 31 32 32 31 30 30 29 29 28 28 28 29 28 27 27 26 26 25 24
Wind_Direction
235 239 243 245 246 248 250 249 248 250 250 247 249 252 253 255 255 256 260 260 261 260 259 255 251 246 242 235 227 221 220 219 220 220 220 221 223 226 229 232 234 237 239 242
239 242 245 246 248 250 251 250 250 250 248 246 249 249 248 248 249 250 252 256 257 256 254 251 247 244 242 240 234 232 230 229 230 230 229 229 231 231 232 235 238 240 244 246
241 243 245 246 246 247 249 250 249 248 246 244 246 245 247 247 247 246 250 254 255 256 253 246 244 244 243 243 241 240 238 236 236 236 236 237 238 239 241 242 243 245 248 252
242 243 244 245 244 245 247 249 248 247 244 244 245 245 245 245 246 248 252 254 252 254 254 249 246 245 244 244 247 247 247 245 243 240 240 241 242 244 246 248 249 250 253 256
241 245 248 249 246 246 248 249 248 247 243 243 244 246 247 246 247 248 249 248 248 250 252 252 248 247 247 247 249 249 250 250 249 247 245 245 247 248 249 252 253 254 256 258
242 244 248 250 247 247 248 251 247 247 244 244 245 246 247 247 247 246 247 245 245 246 249 250 249 249 250 250 252 252 252 252 252 251 250 250 251 253 254 255 256 257 260 262
244 247 251 252 251 248 248 250 247 246 244 244 244 244 246 246 246 244 244 245 245 245 246 247 248 249 251 252 254 255 253 253 254 255 254 253 255 256 257 259 261 262 264 265
244 247 251 253 251 248 247 247 246 243 243 243 243 243 242 242 244 242 242 244 244 245 245 247 249 251 253 254 254 255 255 256 257 258 258 257 257 258 259 261 263 266 267 268
243 246 249 251 249 246 244 245 245 243 241 240 241 240 239 239 241 241 243 245 246 245 244 247 248 250 253 254 254 255 256 257 257 259 261 263 262 262 263 265 267 268 270 272
242 244 246 247 247 244 243 244 244 242 240 239 240 238 238 239 241 241 243 244 244 244 245 246 247 250 252 253 253 255 257 259 260 260 261 263 265 265 266 267 268 269 272 274
240 241 241 241 243 241 240 240 241 239 238 239 239 239 239 241 242 242 242 243 243 244 245 246 249 251 252 254 255 257 258 259 260 262 266 267 267 268 268 270 271 273 275 275
236 237 238 238 238 238 238 238 238 237 237 238 238 239 239 240 242 243 243 243 243 244 247 248 248 249 251 254 256 258 257 259 261 264 267 266 267 269 271 274 276 278 279 279
233 236 239 240 238 236 237 238 237 236 235 233 234 235 236 240 243 245 245 244 246 249 249 250 251 251 252 255 256 257 259 261 262 266 267 269 271 274 276 277 278 279 280 281
233 234 234 234 235 236 234 232 230 229 229 229 231 233 236 239 242 244 245 246 246 247 249 252 252 252 254 257 258 260 262 264 265 268 270 272 275 278 280 281 281 283 284 283
230 229 230 233 234 232 229 226 224 223 224 227 230 232 234 236 237 239 237 237 241 244 247 250 252 254 257 260 262 265 268 270 272 275 277 279 281 282 283 284 285 286 286 286
227 228 227 227 228 228 227 224 222 219 221 225 229 226 227 226 227 231 233 236 243 248 251 254 257 262 266 269 273 275 277 279 281 282 283 284 285 286 287 288 288 289 289 290
223 222 221 219 219 220 219 218 218 219 222 224 226 229 230 232 239 244 248 254 255 259 263 267 270 272 275 278 280 282 283 284 285 286 287 287 288 289 289 290 291 291 291 292
218 214 210 210 214 217 214 213 216 221 223 227 235 241 245 247 251 255 259 264 267 270 274 277 278 280 281 283 285 286 288 288 289 289 290 290 291 291 292 292 293 293 293 294
215 213 211 212 214 217 219 220 221 223 229 236 245 251 253 255 259 262 266 270 274 277 280 282 284 286 288 289 290 291 291 291 292 293 293 293 293 293 293 295 295 296 296 296
209 209 210 212 216 218 222 225 231 233 237 245 251 256 259 262 266 271 274 278 281 284 287 288 290 291 292 293 294 294 294 295 295 296 295 295 296 296 297 297 298 298 298 298
208 209 210 214 217 222 225 228 234 238 243 249 255 261 265 268 272 275 279 282 285 288 290 291 292 293 295 296 297 297 298 298 298 298 298 298 298 298 299 299 299 299 299 299
209 211 215 219 223 226 230 234 238 242 247 253 257 261 266 271 275 280 283 286 289 291 293 294 295 297 298 299 299 299 300 300 300 300 299 299 299 300 300 299 299 299 299 299
208 212 216 219 224 231 234 237 242 246 251 258 263 268 273 278 282 286 288 291 293 295 297 298 299 300 300 300 300 301 301 301 301 301 301 300 301 301 301 301 301 301 301 301
218 219 222 228 235 236 237 241 248 253 257 264 272 276 279 282 286 289 292 294 297 298 299 299 300 300 301 302 302 303 303 302 302 301 301 301 301 302 302 302 302 302 302 303
218 221 227 232 236 238 243 251 257 262 266 271 276 280 284 287 289 292 294 296 298 299 300 301 301 302 302 303 303 304 303 303 302 301 301 302 302 302 302 303 303 303 303 303
221 224 229 234 239 243 248 255 263 268 272 276 279 283 286 289 291 293 295 296 298 299 300 301 301 302 302 302 303 303 303 303 301 301 301 302 303 303 303 303 303 304 305 305
227 231 234 239 244 249 255 261 268 273 276 280 284 287 289 291 293 295 296 298 298 299 300 301 301 302 302 303 303 303 303 303 302 302 302 303 305 305 304 304 306 307 307 306
Height
5793 5794 5797 5799 5800 5802 5804 5806 5808 5810 5810 5811 5811 5811 5812 5813 5813 5814 5814 5814 5814 5815 5815 5816 5817 5818 5819 5820 5821 5823 5824 5826 5828 5830 5832 5834 5836 5838 5840 5842 5844 5846 5848 5849
5787 5789 5791 5792 5794 5796 5798 5799 5801 5802 5804 5804 5805 5806 5807 5808 5809 5810 5811 5811 5812 5812 5813 5814 5815 5816 5817 5818 5820 5821 5822 5823 5825 5827 5829 5831 5833 5835 5837 5839 5841 5842 5843 5844
5781 5782 5784 5787 5789 5790 5791 5792 5794 5796 5797 5798 5799 5800 5802 5803 5804 5806 5807 5808 5808 5809 5810 5811 5812 5813 5814 5816 5817 5819 5820 5821 5823 5824 5826 5828 5830 5831 5833 5835 5836 5837 5838 5839
5774 5776 5778 5781 5782 5783 5784 5785 5787 5788 5790 5791 5793 5795 5796 5798 5799 5801 5802 5803 5804 5805 5806 5807 5809 5810 5811 5813 5814 5815 5817 5818 5819 5821 5822 5824 5826 5827 5829 5830 5831 5832 5832 5833
5768 5769 5771 5773 5775 5776 5777 5778 5780 5781 5783 5784 5786 5788 5790 5792 5793 5795 5797 5798 5799 5800 5801 5803 5804 5806 5807 5809 5810 5811 5813 5814 5815 5816 5818 5819 5821 5822 5823 5824 5825 5825 5826 5826
5761 5763 5765 5767 5768 5769 5771 5771 5773 5774 5776 5778 5780 5782 5784 5785 5787 5789 5791 5792 5794 5795 5796 5798 5799 5801 5803 5804 5805 5806 5807 5809 5810 5811 5813 5814 5815 5816 5817 5818 5818 5819 5819 5819
5754 5756 5757 5759 5760 5762 5765 5765 5766 5767 5769 5771 5773 5775 5777 5779 5781 5783 5784 5786 5788 5790 5791 5793 5794 5796 5798 5799 5800 5801 5802 5803 5804 5805 5806 5807 5808 5809 5810 5810 5811 5811 5811 5811
5747 5749 5751 5752 5753 5755 5756 5757 5759 5760 5762 5764 5766 5768 5770 5772 5774 5776 5778 5780 5782 5784 5785 5787 5789 5790 5792 5793 5794 5795 5796 5797 5798 5799 5799 5800 5801 5802 5802 5803 5803 5803 5802 5802
5741 5743 5743 5744 5745 5747 5749 5750 5752 5753 5755 5757 5759 5761 5763 5766 5768 5770 5771 5773 5775 5777 5779 5781 5782 5784 5785 5786 5787 5788 5789 5790 5791 5792 5792 5793 5793 5794 5794 5794 5794 5793 5793 5792
5734 5735 5736 5737 5738 5740 5742 5744 5746 5747 5749 5751 5753 5755 5757 5760 5762 5763 5765 5767 5769 5771 5773 5774 5776 5777 5778 5779 5780 5781 5782 5783 5783 5783 5784 5784 5785 5785 5785 5785 5784 5783 5782 5781
5727 5729 5730 5731 5733 5734 5736 5738 5739 5741 5743 5745 5747 5749 5752 5754 5755 5757 5759 5760 5762 5764 5766 5768 5769 5770 5771 5772 5773 5774 5775 5775 5775 5775 5776 5776 5776 5776 5775 5775 5774 5773 5772 5770
5722 5724 5726 5727 5728 5730 5731 5732 5734 5736 5738 5739 5741 5744 5746 5748 5749 5751 5752 5754 5756 5757 5759 5761 5762 5763 5764 5766 5766 5767 5767 5767 5767 5768 5767 5767 5767 5766 5765 5765 5764 5762 5761 5759
5717 5719 5721 5722 5724 5725 5726 5728 5730 5731 5733 5735 5736 5738 5740 5742 5743 5745 5746 5748 5750 5751 5752 5753 5754 5756 5757 5758 5758 5759 5759 5759 5759 5759 5759 5758 5757 5757 5756 5755 5754 5752 5750 5748
5713 5715 5716 5718 5719 5721 5722 5724 5726 5727 5729 5730 5732 5734 5735 5737 5738 5740 5741 5742 5744 5745 5746 5747 5748 5749 5750 5750 5750 5751 5751 5751 5751 5751 5750 5749 5748 5747 5746 5745 5743 5741 5739 5737
5709 5711 5713 5714 5716 5717 5719 5720 5722 5724 5725 5727 5728 5729 5731 5732 5733 5735 5736 5737 5738 5739 5740 5741 5742 5743 5743 5744 5744 5744 5744 5744 5743 5743 5742 5741 5740 5738 5737 5735 5733 5730 5728 5725
5705 5707 5709 5710 5712 5714 5715 5717 5719 5721 5722 5724 5725 5725 5727 5728 5729 5730 5731 5732 5734 5735 5736 5737 5737 5738 5738 5738 5738 5737 5737 5736 5736 5735 5734 5732 5731 5729 5727 5724 5722 5719 5716 5713
5701 5703 5705 5707 5709 5711 5713 5715 5716 5718 5720 5721 5722 5723 5724 5725 5726 5727 5728 5729 5730 5731 5732 5732 5732 5732 5732 5732 5731 5731 5730 5729 5728 5727 5725 5723 5721 5719 5716 5714 5710 5707 5704 5700
5698 5700 5702 5704 5707 5709 5710 5712 5714 5716 5717 5719 5720 5721 5722 5723 5724 5725 5725 5726 5727 5727 5727 5727 5727 5727 5727 5726 5725 5724 5723 5721 5720 5718 5715 5713 5710 5708 5705 5702 5698 5695 5691 5687
5695 5697 5699 5702 5704 5706 5708 5710 5712 5713 5715 5716 5717 5718 5719 5720 5721 5721 5722 5722 5722 5723 5722 5722 5721 5721 5720 5719 5717 5716 5714 5712 5710 5707 5705 5702 5699 5696 5693 5689 5685 5681 5677 5673
5692 5694 5697 5699 5701 5704 5705 5707 5709 5710 5712 5713 5714 5715 5716 5716 5717 5717 5717 5717 5717 5717 5716 5716 5715 5714 5712 5711 5709 5707 5705 5702 5699 5697 5694 5691 5687 5684 5680 5676 5672 5668 5664 5660
5689 5692 5694 5696 5699 5701 5703 5705 5706 5707 5709 5710 5711 5712 5712 5713 5713 5713 5712 5712 5711 5710 5709 5708 5707 5705 5704 5702 5699 5697 5694 5691 5688 5685 5682 5678 5675 5671 5667 5663 5659 5656 5652 5648
5687 5689 5691 5694 5696 5698 5700 5701 5703 5704 5705 5706 5707 5707 5708 5708 5708 5707 5707 5706 5705 5703 5702 5700 5698 5696 5694 5692 5689 5687 5684 5680 5677 5674 5670 5666 5663 5659 5655 5651 5648 5644 5640 5636
5684 5686 5689 5691 5693 5694 5696 5697 5699 5700 5701 5702 5702 5703 5703 5702 5702 5701 5700 5699 5697 5696 5694 5692 5690 5687 5685 5682 5679 5676 5673 5669 5666 5662 5659 5655 5652 5648 5644 5641 5637 5633 5629 5625
5682 5684 5686 5688 5689 5691 5693 5694 5695 5696 5696 5697 5697 5697 5697 5696 5696 5694 5693 5691 5690 5688 5686 5683 5681 5678 5676 5672 5669 5666 5662 5659 5656 5652 5649 5645 5642 5638 5634 5631 5627 5623 5619 5615
5679 5681 5683 5684 5686 5688 5689 5690 5691 5691 5691 5692 5692 5691 5691 5690 5689 5687 5685 5684 5682 5680 5677 5675 5672 5669 5666 5663 5659 5656 5653 5649 5646 5643 5639 5636 5632 5629 5625 5622 5618 5614 5610 5606
5676 5678 5679 5681 5682 5684 5685 5685 5686 5686 5686 5686 5686 5685 5684 5683 5681 5680 5678 5676 5674 5671 5668 5666 5663 5660 5657 5654 5650 5647 5644 5640 5637 5633 5630 5627 5624 5620 5616 5613 5609 5605 5602 5598
5673 5675 5676 5677 5678 5679 5680 5680 5680 5680 5680 5680 5679 5678 5677 5675 5673 5671 5670 5667 5665 5662 5660 5657 5654 5651 5648 5644 5641 5638 5635 5631 5628 5625 5622 5618 5615 5611 5608 5605 5601 5598 5594 5590